OBJECT A, 60468

Orbit data source: Space-Track

You're viewing an Uncataloged Satellite

Recently launched and/or uncataloged satellites may have evolving metadata. Metadata may include but not limited to: Owner, Maufacturer, Bus, Motor, and Mission.

OBJECT A, 60468 is a satellite in SSO that was launched on Fri, 16 Aug 2024 UTC launched from the Air Force Western Test Range (AFWTR). Unknown objects in Earth's orbit typically refer to objects detected orbiting the Earth but have not yet been identified or cataloged. These objects could be anything from previously untracked satellites, spent rocket stages, debris from satellite collisions, or even natural meteoroids temporarily captured by Earth's gravity.

Loading next visibility...
Identifier
60468, 2024-149A
Orbit
SSO
Country
Flag of TBDTBD
Related business
None
Manufacturer
Unknown
Mission
Operational Commercial Imaging
Bus & Motor
Unknown
Mass
Unknown
Launch date (UTC)
2024-08-16 (2 years ago)
Launch vehicle
Unknown
Launch site
Air Force Western Test Range (AFWTR)
Object type
Unknown
Shape & HBR
Box + 2 Pan, 0.3 m
Radar Cross Section
0.072 m², Medium (>0.1 m² and < 1m²)

Expand to show TLE details & history
Last TLE update: 7 hours ago

TLE from 7 hours ago
0 OBJECT A
1 60468U 24149A   26175.20328185  .00007374  00000-0  23373-3 0  9996
2 60468  97.3729 255.1113 0003512 170.5667 189.5642 15.33004450103132
Epoch: 2026-06-24T04:52Z
TLE epoch observation values (Epoch: 2026-06-24T04:52:43.551Z)
Latitude
-0.00003°
Longitude
-90.43402°
Altitude
472.334 km
Speed
7.629 km/s
True Right ascension
17h 00m 26s
True Declination
0° 00' 00"
Sunlit
Object was in full shadow at epoch
Visualization orbit readout
Latitude
Unknown
Longitude
Unknown
Altitude
Unknown
Speed
Unknown
Apparent Right ascension
Unknown
Apparent Declination
Unknown
Sunlit
N/A
Visualization observer readout
Local Sidereal Time
23:28:22
Azimuth
Unknown
Elevation
Unknown
Doppler factor
Unknown
Orbital elements
Apogee altitude
466.204 km
Perigee altitude
461.398 km
Semi-major axis
6,841.938 km
Eccentricity
0.00035
Inclination
97.3729°
RAAN
255.1113°
Arg. of periapsis
170.5667°
True anomaly
189.55752°
Mean anomaly
189.5642°
Eccentric anomaly
189.56086°
Mean motion
3.83508 °/min
Orbital period
93.87 mins
BSTAR
0.00023373
Loading maneuver chart data...
Computing Atmospheric mass density...
Loading historical data...
Loading historical data...
Loading historical data...
Loading historical data...
Loading historical data...
Loading historical data...
Loading historical data...

Documentation

Showing up to 5 results
|